When you browse on this site, cookies collect data to enhance your experience and personalize the content and advertising you see.
Visit our Privacy Policy to learn more. By continuing to use the site, you agree to this use of cookies and data.
  • In Hungary
  • List of Countries
  • For 7 days
  • Water Temperature
  • Weather Map
  • News
  • Weather Widgets
  • user-avatar
    Login

    Hourly Weather Vimercate

    Today, 10 December, Tuesday

    Time Temperature Precipitation Wind Pressure Humidity
    00:00 +6°C° 0 mm 2 mps 741 mmHg 68%
    01:00 +5°C° 0 mm 4 mps 742 mmHg 63%
    02:00 +5°C° 0 mm 4 mps 743 mmHg 60%
    03:00 +5°C° 0 mm 3 mps 743 mmHg 57%
    04:00 +5°C° 0 mm 3 mps 744 mmHg 55%
    05:00 +5°C° 0 mm 3 mps 745 mmHg 55%
    06:00 +5°C° 0 mm 3 mps 746 mmHg 55%
    07:00 +5°C° 0 mm 4 mps 747 mmHg 55%
    08:00 +6°C° 0 mm 4 mps 747 mmHg 52%
    09:00 +6°C° 0 mm 4 mps 748 mmHg 50%
    10:00 +7°C° 0 mm 4 mps 748 mmHg 47%
    11:00 +9°C° 0 mm 3 mps 749 mmHg 44%
    12:00 +10°C° 0 mm 3 mps 749 mmHg 40%
    13:00 +11°C° 0 mm 4 mps 749 mmHg 36%
    14:00 +10°C° 0 mm 3 mps 748 mmHg 37%
    15:00 +9°C° 0 mm 2 mps 748 mmHg 38%
    16:00 +9°C° 0 mm 2 mps 748 mmHg 40%
    17:00 +8°C° 0 mm 2 mps 748 mmHg 41%
    18:00 +7°C° 0 mm 2 mps 749 mmHg 42%
    19:00 +5°C° 0 mm 2 mps 749 mmHg 44%
    20:00 +5°C° 0 mm 2 mps 749 mmHg 42%
    21:00 +5°C° 0 mm 2 mps 749 mmHg 40%
    22:00 +6°C° 0 mm 1 mps 749 mmHg 38%
    23:00 +6°C° 0 mm 1 mps 749 mmHg 38%

    Tomorrow, 11 December, Wednesday

    Time Temperature Precipitation Wind Pressure Humidity
    00:00 +6°C° 0 mm 1 mps 749 mmHg 38%
    01:00 +5°C° 0 mm 1 mps 749 mmHg 38%
    02:00 +5°C° 0 mm 1 mps 749 mmHg 40%
    03:00 +5°C° 0 mm 1 mps 748 mmHg 41%
    04:00 +5°C° 0 mm 1 mps 747 mmHg 43%
    05:00 +5°C° 0 mm 1 mps 747 mmHg 45%
    06:00 +4°C° 0 mm 1 mps 746 mmHg 47%
    07:00 +4°C° 0 mm 1 mps 746 mmHg 50%
    08:00 +5°C° 0 mm 1 mps 746 mmHg 49%
    09:00 +4°C° 0 mm 0 mps 745 mmHg 48%
    10:00 +5°C° 0 mm 0 mps 745 mmHg 47%
    11:00 +5°C° 0 mm 0 mps 744 mmHg 48%
    12:00 +6°C° 0 mm 0 mps 743 mmHg 48%
    13:00 +7°C° 0 mm 1 mps 742 mmHg 49%
    14:00 +6°C° 0 mm 0 mps 741 mmHg 52%
    15:00 +6°C° 0 mm 0 mps 741 mmHg 55%
    16:00 +5°C° 0 mm 0 mps 740 mmHg 58%
    17:00 +5°C° 0 mm 0 mps 740 mmHg 60%
    18:00 +5°C° 0 mm 0 mps 740 mmHg 62%
    19:00 +4°C° 0 mm 0 mps 740 mmHg 64%
    20:00 +4°C° 0.1 mm 0 mps 739 mmHg 66%
    21:00 +4°C° 0.1 mm 0 mps 739 mmHg 67%
    22:00 +4°C° 0.1 mm 0 mps 739 mmHg 69%
    23:00 +4°C° 0.4 mm 0 mps 738 mmHg 73%

    Day after tomorrow, 12 December, Thursday

    Time Temperature Precipitation Wind Pressure Humidity
    00:00 +4°C° 0.4 mm 0 mps 738 mmHg 78%
    01:00 +4°C° 0.4 mm 1 mps 738 mmHg 83%
    02:00 +4°C° 0.3 mm 1 mps 737 mmHg 84%
    03:00 +4°C° 0.3 mm 1 mps 737 mmHg 85%
    04:00 +4°C° 0.3 mm 1 mps 736 mmHg 86%
    05:00 +4°C° 0.1 mm 1 mps 736 mmHg 87%
    06:00 +3°C° 0.1 mm 0 mps 737 mmHg 89%
    07:00 +3°C° 0.1 mm 0 mps 737 mmHg 90%
    08:00 +3°C° 0.2 mm 0 mps 737 mmHg 89%
    09:00 +3°C° 0.2 mm 0 mps 738 mmHg 88%
    10:00 +4°C° 0.2 mm 1 mps 738 mmHg 87%
    11:00 +5°C° 0 mm 1 mps 738 mmHg 85%
    12:00 +5°C° 0 mm 1 mps 738 mmHg 83%
    13:00 +5°C° 0 mm 1 mps 738 mmHg 82%
    14:00 +5°C° 0 mm 1 mps 737 mmHg 81%
    15:00 +5°C° 0 mm 1 mps 737 mmHg 80%
    16:00 +4°C° 0 mm 0 mps 737 mmHg 80%
    17:00 +5°C° 0 mm 1 mps 737 mmHg 81%
    18:00 +4°C° 0 mm 1 mps 737 mmHg 82%
    19:00 +4°C° 0 mm 1 mps 737 mmHg 82%
    20:00 +3°C° 0 mm 1 mps 737 mmHg 82%
    21:00 +3°C° 0 mm 1 mps 737 mmHg 81%
    22:00 +3°C° 0 mm 1 mps 736 mmHg 80%
    23:00 +3°C° 0 mm 1 mps 736 mmHg 80%

    13 December, Friday

    Time Temperature Precipitation Wind Pressure Humidity
    00:00 +3°C° 0 mm 1 mps 735 mmHg 79%
    01:00 +3°C° 0 mm 1 mps 735 mmHg 78%
    02:00 +3°C° 0 mm 1 mps 734 mmHg 78%
    03:00 +3°C° 0 mm 1 mps 733 mmHg 79%
    04:00 +3°C° 0 mm 1 mps 732 mmHg 79%
    05:00 +3°C° 0.5 mm 1 mps 731 mmHg 83%
    06:00 +3°C° 0.5 mm 1 mps 731 mmHg 88%
    07:00 +2°C° 0.5 mm 1 mps 730 mmHg 93%
    08:00 +2°C° 1.3 mm 1 mps 729 mmHg 94%
    09:00 +2°C° 1.3 mm 1 mps 728 mmHg 95%
    10:00 +2°C° 1.3 mm 1 mps 728 mmHg 96%
    11:00 +3°C° 0.5 mm 1 mps 727 mmHg 95%
    12:00 +3°C° 0.5 mm 1 mps 726 mmHg 95%
    13:00 +3°C° 0.5 mm 1 mps 725 mmHg 94%
    14:00 +2°C° 0 mm 2 mps 725 mmHg 93%
    15:00 +2°C° 0 mm 2 mps 725 mmHg 91%
    16:00 +1°C° 0 mm 3 mps 726 mmHg 89%
    17:00 +1°C° 0 mm 3 mps 726 mmHg 87%
    18:00 +1°C° 0 mm 3 mps 727 mmHg 85%
    19:00 0°C° 0 mm 4 mps 728 mmHg 84%
    20:00 0°C° 0 mm 4 mps 729 mmHg 79%
    21:00 0°C° 0 mm 4 mps 730 mmHg 74%
    22:00 0°C° 0 mm 4 mps 731 mmHg 69%
    23:00 0°C° 0 mm 4 mps 732 mmHg 67%

    14 December, Saturday

    Time Temperature Precipitation Wind Pressure Humidity
    00:00 0°C° 0 mm 4 mps 732 mmHg 65%
    01:00 +1°C° 0 mm 3 mps 733 mmHg 64%
    02:00 +1°C° 0 mm 3 mps 733 mmHg 64%
    03:00 +1°C° 0 mm 3 mps 733 mmHg 65%
    04:00 +1°C° 0 mm 3 mps 734 mmHg 66%
    05:00 +2°C° 0 mm 2 mps 734 mmHg 66%
    06:00 +2°C° 0 mm 2 mps 734 mmHg 66%
    07:00 +2°C° 0 mm 2 mps 735 mmHg 66%
    08:00 +4°C° 0 mm 1 mps 735 mmHg 65%
    09:00 +4°C° 0 mm 1 mps 736 mmHg 65%
    10:00 +4°C° 0 mm 0 mps 736 mmHg 64%
    11:00 +5°C° 0 mm 0 mps 736 mmHg 61%
    12:00 +6°C° 0 mm 0 mps 736 mmHg 59%
    13:00 +7°C° 0 mm 0 mps 736 mmHg 56%
    14:00 +6°C° 0 mm 0 mps 737 mmHg 59%
    15:00 +7°C° 0 mm 1 mps 737 mmHg 62%
    16:00 +6°C° 0 mm 1 mps 738 mmHg 65%
    17:00 +6°C° 0 mm 1 mps 738 mmHg 67%
    18:00 +5°C° 0 mm 1 mps 739 mmHg 69%
    19:00 +5°C° 0 mm 1 mps 739 mmHg 70%
    20:00 +4°C° 0 mm 1 mps 740 mmHg 71%
    21:00 +4°C° 0 mm 1 mps 740 mmHg 72%
    22:00 +4°C° 0 mm 1 mps 741 mmHg 73%
    23:00 +4°C° 0 mm 1 mps 741 mmHg 73%

    15 December, Sunday

    Time Temperature Precipitation Wind Pressure Humidity
    00:00 +4°C° 0 mm 1 mps 741 mmHg 73%
    01:00 +4°C° 0 mm 1 mps 741 mmHg 73%
    02:00 +4°C° 0 mm 1 mps 741 mmHg 74%
    03:00 +2°C° 0 mm 0 mps 741 mmHg 74%
    04:00 +2°C° 0 mm 0 mps 742 mmHg 74%
    05:00 +3°C° 0 mm 0 mps 742 mmHg 74%
    06:00 +3°C° 0 mm 0 mps 742 mmHg 74%
    07:00 +3°C° 0 mm 0 mps 743 mmHg 73%
    08:00 +4°C° 0 mm 0 mps 743 mmHg 72%
    09:00 +4°C° 0 mm 0 mps 743 mmHg 71%
    10:00 +6°C° 0 mm 1 mps 744 mmHg 70%
    11:00 +5°C° 0 mm 0 mps 743 mmHg 72%
    12:00 +5°C° 0 mm 0 mps 743 mmHg 75%
    13:00 +4°C° 0 mm 0 mps 743 mmHg 77%
    14:00 +5°C° 0 mm 0 mps 743 mmHg 77%
    15:00 +5°C° 0 mm 0 mps 744 mmHg 78%
    16:00 +5°C° 0 mm 0 mps 744 mmHg 78%
    17:00 +5°C° 0 mm 0 mps 744 mmHg 78%
    18:00 +5°C° 0 mm 0 mps 745 mmHg 78%
    19:00 +6°C° 0 mm 1 mps 745 mmHg 78%
    20:00 +5°C° 0 mm 0 mps 746 mmHg 78%
    21:00 +5°C° 0 mm 0 mps 746 mmHg 78%
    22:00 +5°C° 0 mm 0 mps 747 mmHg 79%
    23:00 +5°C° 0.1 mm 0 mps 747 mmHg 80%
    Show more